Weather History for LIRN - November, 2011

Change the Weather History Date:

Wednesday, November 2, 2011

  Actual Average Record
Temperature  
Mean Temperature 62 °F -  
Max Temperature 71 °F 63 °F 82 °F (2004)
Min Temperature 53 °F 46 °F 46 °F (2006)
Degree Days  
Heating Degree Days 3    
Growing Degree Days 12 (Base 50)    
Moisture  
Dew Point 51 °F    
Average Humidity 68    
Maximum Humidity 82    
Minimum Humidity 38    
Precipitation  
Precipitation 0.00 in 0.21 in - ()
Sea Level Pressure  
Sea Level Pressure 30.06 in    
Wind  
Wind Speed 4 mph ()    
Max Wind Speed 7 mph    
Max Gust Speed -    
Visibility 7.3 miles    
Events      
Averages and records for this station are not official NWS values.
T = Trace of Precipitation, MM = Missing Value Source: Averaged Metar Reports

Daily Weather History Graph

Daily Weather History Graph

Search for Another Location

Airport or City:

Trip Planner

Search our weather history database for the weather conditions in past years. The results will help you decide how hot, cold, wet, or windy it might be!

Date:

Astronomy

Nov. 02, 2011 Rise Set
Actual Time 6:33 AM CET 4:58 PM CET
Civil Twilight 6:05 AM CET 5:26 PM CET
Nautical Twilight 5:33 AM CET 5:59 PM CET
Astronomical Twilight 5:01 AM CET 6:31 PM CET
Moon 12:44 PM CET (11/2) 11:26 PM CET (11/2)
Length of Visible Light 11h 21m
Length of Day
10h 24m
Waxing Crescent, 48% of the Moon is Illuminated
Nov 2
Waxing Crescent
Nov 2
First Quarter
Nov 10
Full
Nov 18
Last Quarter
Nov 25
New

Hourly Weather History & Observations

Time (CET) Temp. Dew Point Humidity Pressure Visibility Wind Dir Wind Speed Gust Speed Precip Events Conditions
12:20 AM 57.2 °F 51.8 °F 82% 30.09 in - NW 4.6 mph - N/A   Clear
12:50 AM 57.2 °F 51.8 °F 82% 30.09 in - NNW 3.5 mph - N/A   Clear
1:00 AM 58 °F 52 °F 73% 30.09 in 12 mi NNW 2.3 mph - -  
1:20 AM 57.2 °F 51.8 °F 82% 30.09 in - NW 3.5 mph - N/A   Clear
1:50 AM 57.2 °F 51.8 °F 82% 30.06 in - NNW 4.6 mph - N/A   Clear
2:20 AM 57.2 °F 51.8 °F 82% 30.06 in - NW 4.6 mph - N/A   Clear
2:50 AM 57.2 °F 51.8 °F 82% 30.06 in - NW 4.6 mph - N/A   Clear
3:20 AM 55.4 °F 50.0 °F 82% 30.06 in - NNW 3.5 mph - N/A   Clear
3:50 AM 57.2 °F 51.8 °F 82% 30.06 in - NNW 4.6 mph - N/A   Clear
4:00 AM 57 °F 52 °F 76% 30.08 in 12 mi NNW 4.6 mph - -  
4:20 AM 57.2 °F 51.8 °F 82% 30.06 in - NNW 3.5 mph - N/A   Clear
5:50 AM 55.4 °F 50.0 °F 82% 30.06 in - North 4.6 mph - N/A   Clear
6:20 AM 55.4 °F 48.2 °F 77% 30.06 in - North 3.5 mph - N/A   Clear
6:50 AM 55.4 °F 50.0 °F 82% 30.06 in - NNW 4.6 mph - N/A   Clear
7:00 AM 55 °F 50 °F 77% 30.09 in 7 mi NNW 3.5 mph - -  
7:20 AM 57.2 °F 50.0 °F 77% 30.06 in 5.0 mi NNW 4.6 mph - N/A   Unknown
7:50 AM 59.0 °F 51.8 °F 77% 30.09 in 5.6 mi NNW 2.3 mph - N/A   Unknown
8:20 AM 60.8 °F 51.8 °F 72% 30.09 in - North 3.5 mph - N/A   Clear
8:50 AM 60.8 °F 51.8 °F 72% 30.09 in - North 3.5 mph - N/A   Clear
9:20 AM 64.4 °F 51.8 °F 64% 30.09 in - North 5.8 mph - N/A   Clear
9:50 AM 66.2 °F 51.8 °F 60% 30.09 in - NNE 6.9 mph - N/A   Clear
10:00 AM 65 °F 51 °F 51% 30.09 in 14 mi NNE 6.9 mph - -  
10:50 AM 66.2 °F 50.0 °F 56% 30.06 in - NNE 5.8 mph - N/A   Clear
11:50 AM 68.0 °F 48.2 °F 49% 30.06 in - NNE 3.5 mph - N/A   Clear
12:20 PM 69.8 °F 51.8 °F 53% 30.04 in 6.2 mi Variable 2.3 mph - N/A   Partly Cloudy
12:50 PM 69.8 °F 50.0 °F 49% 30.04 in 6.2 mi Variable 2.3 mph - N/A   Partly Cloudy
1:00 PM 70 °F 50 °F 38% 30.04 in 12 mi NE 3.5 mph - -   Scattered Clouds
1:20 PM 69.8 °F 48.2 °F 46% 30.04 in 6.2 mi Variable 3.5 mph - N/A   Partly Cloudy
1:50 PM 69.8 °F 48.2 °F 46% 30.04 in 6.2 mi Variable 3.5 mph - N/A   Partly Cloudy
2:20 PM 71.6 °F 48.2 °F 43% 30.04 in 6.2 mi Variable 2.3 mph - N/A   Partly Cloudy
2:50 PM 69.8 °F 50.0 °F 49% 30.04 in 6.2 mi Variable 5.8 mph - N/A   Partly Cloudy
3:20 PM 69.8 °F 51.8 °F 53% 30.04 in 6.2 mi South 4.6 mph - N/A   Partly Cloudy
3:50 PM 68.0 °F 51.8 °F 56% 30.04 in - South 4.6 mph - N/A   Clear
4:00 PM 69 °F 53 °F 46% 30.03 in 16 mi South 4.6 mph - -  
4:20 PM 68.0 °F 53.6 °F 60% 30.04 in - South 4.6 mph - N/A   Clear
4:50 PM 66.2 °F 53.6 °F 64% 30.04 in - South 3.5 mph - N/A   Clear
5:20 PM 64.4 °F 55.4 °F 73% 30.04 in - SSE 3.5 mph - N/A   Clear
5:50 PM 64.4 °F 55.4 °F 73% 30.04 in - Variable 2.3 mph - N/A   Clear
6:20 PM 62.6 °F 55.4 °F 77% 30.04 in - East 2.3 mph - N/A   Clear
6:50 PM 60.8 °F 55.4 °F 82% 30.06 in - NE 2.3 mph - N/A   Clear
7:00 PM 61 °F 54 °F 71% 30.06 in 12 mi East 2.3 mph - -  
7:20 PM 60.8 °F 53.6 °F 77% 30.04 in - Variable 2.3 mph - N/A   Clear
7:50 PM 60.8 °F 53.6 °F 77% 30.06 in - Variable 2.3 mph - N/A   Clear
8:20 PM 59.0 °F 50.0 °F 72% 30.06 in - NNE 4.6 mph - N/A   Clear
8:50 PM 60.8 °F 50.0 °F 68% 30.06 in - NE 5.8 mph - N/A   Clear
9:20 PM 59.0 °F 50.0 °F 72% 30.06 in 4.3 mi NE 4.6 mph - N/A   Unknown
9:50 PM 59.0 °F 48.2 °F 67% 30.06 in 4.3 mi NE 4.6 mph - N/A   Unknown
10:00 PM 59 °F 49 °F 60% 30.08 in 4 mi NNE 4.6 mph - -   Mist
10:20 PM 57.2 °F 48.2 °F 72% 30.06 in 4.3 mi North 4.6 mph - N/A   Unknown
10:50 PM 57.2 °F 48.2 °F 72% 30.06 in 4.3 mi North 4.6 mph - N/A   Unknown
11:20 PM 57.2 °F 48.2 °F 72% 30.06 in 4.3 mi NNW 3.5 mph - N/A   Unknown
11:50 PM 57.2 °F 48.2 °F 72% 30.06 in 4.3 mi North 3.5 mph - N/A   Unknown